sat.trackr.live / text

‹ back to catalog

BEIDOU-3 M26 (C48)

NORAD 58655 · 2023-207B

PAYLOAD ACTIVE UNKNOWN

§ Identity

Operator
Country
PRC
Launch date
2023-12-26
Launch site
XICLF
Launch vehicle
Mass (kg)
RCS (m²)

Purposes: nav

External: N2YO · Heavens-Above · Gunter

§ Orbital elements

Epoch: 2026-09-19T14:25:57.096192Z

Period
773.24 min
Inclination
55.8438°
Eccentricity
0.0001140
Mean motion
1.86229692 rev/d
Perigee alt
21,525.0 km
Apogee alt
21,531.4 km
Semi-major
27,906.3 km
B*
0.0000e+0
RAAN
59.1102°
Arg perigee
244.6862°
Mean anomaly
115.3218°
Rev number
1,858

§ Raw data

BEIDOU-3 M26 (C48)1 58655U 23207B   26262.60135528 -.00000015  00000+0  00000+0 0  99962 58655  55.8438  59.1102 0001140 244.6862 115.3218  1.86229692 18588

JSON: /api/v1/satellites/58655 · /tle

For live sub-satellite position, see the globe view (requires WebGL).

§ Visibility from observer

Set your observer location to see the next 7 days of passes ≥ 10°. The values pass through the URL so the page stays shareable.

No JS? Fill the form by hand. The geolocation button needs JavaScript.